owner,sensor,date,latitude,longitude,vertical_datum,mass_concentration_of_oxygen_in_sea_water,qcFlag 
DISL,ioos:station:DISL:DISL:1,2008-06-01T00:00:00Z,30.2513,-88.0778,5.693,8.65,1111122 
DISL,ioos:station:DISL:DISL:1,2008-06-01T00:30:00Z,30.2513,-88.0778,5.712,9.02,1111122 
DISL,ioos:station:DISL:DISL:1,2008-06-01T01:00:00Z,30.2513,-88.0778,5.769,8.8,1111122 
DISL,ioos:station:DISL:DISL:1,2008-06-01T01:30:00Z,30.2513,-88.0778,5.786,8.88,1111122 
DISL,ioos:station:DISL:DISL:1,2008-06-01T02:00:00Z,30.2513,-88.0778,5.832,8.32,1111122 
DISL,ioos:station:DISL:DISL:1,2008-06-01T02:30:00Z,30.2513,-88.0778,5.889,8.22,1111122 
DISL,ioos:station:DISL:DISL:1,2008-06-01T03:00:00Z,30.2513,-88.0778,5.971,8.34,1111122 
DISL,ioos:station:DISL:DISL:1,2008-06-01T03:30:00Z,30.2513,-88.0778,6.027,7.83,1111122 
DISL,ioos:station:DISL:DISL:1,2008-06-01T04:00:00Z,30.2513,-88.0778,6.067,8.41,1111122 
DISL,ioos:station:DISL:DISL:1,2008-06-01T04:30:00Z,30.2513,-88.0778,6.108,8.41,1111122 
DISL,ioos:station:DISL:DISL:1,2008-06-01T05:00:00Z,30.2513,-88.0778,6.199,7.5,1111122 
DISL,ioos:station:DISL:DISL:1,2008-06-01T05:30:00Z,30.2513,-88.0778,6.25,6.26,1111122 
DISL,ioos:station:DISL:DISL:1,2008-06-01T06:00:00Z,30.2513,-88.0778,6.38,5.53,1111122 
DISL,ioos:station:DISL:DISL:1,2008-06-01T06:30:00Z,30.2513,-88.0778,6.448,5.54,1111122 
DISL,ioos:station:DISL:DISL:1,2008-06-01T07:00:00Z,30.2513,-88.0778,6.49,6.11,1111122 
DISL,ioos:station:DISL:DISL:1,2008-06-01T07:30:00Z,30.2513,-88.0778,6.609,6.08,1111122 
DISL,ioos:station:DISL:DISL:1,2008-06-01T08:00:00Z,30.2513,-88.0778,6.671,6.03,1111122 
DISL,ioos:station:DISL:DISL:1,2008-06-01T08:30:00Z,30.2513,-88.0778,6.765,5.94,1111122 
DISL,ioos:station:DISL:DISL:1,2008-06-01T09:00:00Z,30.2513,-88.0778,6.859,5.92,1111122 
DISL,ioos:station:DISL:DISL:1,2008-06-01T09:30:00Z,30.2513,-88.0778,6.91,5.94,1111122 
DISL,ioos:station:DISL:DISL:1,2008-06-01T10:00:00Z,30.2513,-88.0778,6.979,5.78,1111122 
DISL,ioos:station:DISL:DISL:1,2008-06-01T10:30:00Z,30.2513,-88.0778,7.02,5.59,1111122 
DISL,ioos:station:DISL:DISL:1,2008-06-01T11:00:00Z,30.2513,-88.0778,7.1,5.37,1111122 
DISL,ioos:station:DISL:DISL:1,2008-06-01T11:30:00Z,30.2513,-88.0778,7.13,5.24,1111122 
DISL,ioos:station:DISL:DISL:1,2008-06-01T12:00:00Z,30.2513,-88.0778,7.18,4.93,1111122 
DISL,ioos:station:DISL:DISL:1,2008-06-01T12:30:00Z,30.2513,-88.0778,7.21,4.68,1111122 
DISL,ioos:station:DISL:DISL:1,2008-06-01T13:00:00Z,30.2513,-88.0778,7.22,4.86,1111122 
DISL,ioos:station:DISL:DISL:1,2008-06-01T13:30:00Z,30.2513,-88.0778,7.16,5.03,1111122 
DISL,ioos:station:DISL:DISL:1,2008-06-01T14:00:00Z,30.2513,-88.0778,7.17,4.95,1111122 
DISL,ioos:station:DISL:DISL:1,2008-06-01T14:30:00Z,30.2513,-88.0778,7.1,5.07,1111122 
DISL,ioos:station:DISL:DISL:1,2008-06-01T15:00:00Z,30.2513,-88.0778,7.09,5.09,1111122 
DISL,ioos:station:DISL:DISL:1,2008-06-01T15:30:00Z,30.2513,-88.0778,7.03,5.28,1111122 
DISL,ioos:station:DISL:DISL:1,2008-06-01T16:00:00Z,30.2513,-88.0778,6.91,5.4,1111122 
DISL,ioos:station:DISL:DISL:1,2008-06-01T16:30:00Z,30.2513,-88.0778,6.821,5.22,1111122 
DISL,ioos:station:DISL:DISL:1,2008-06-01T17:00:00Z,30.2513,-88.0778,6.7,5.39,1111122 
DISL,ioos:station:DISL:DISL:1,2008-06-01T17:30:00Z,30.2513,-88.0778,6.58,5.49,1111122 
DISL,ioos:station:DISL:DISL:1,2008-06-01T18:00:00Z,30.2513,-88.0778,6.457,5.6,1111122 
DISL,ioos:station:DISL:DISL:1,2008-06-01T18:30:00Z,30.2513,-88.0778,6.32,5.68,1111122 
DISL,ioos:station:DISL:DISL:1,2008-06-01T19:00:00Z,30.2513,-88.0778,6.238,6.59,1111122 
DISL,ioos:station:DISL:DISL:1,2008-06-01T19:30:00Z,30.2513,-88.0778,6.083,7.31,1111122 
DISL,ioos:station:DISL:DISL:1,2008-06-01T20:00:00Z,30.2513,-88.0778,6.003,7.91,1111122 
DISL,ioos:station:DISL:DISL:1,2008-06-01T20:30:00Z,30.2513,-88.0778,5.857,8.25,1111122 
DISL,ioos:station:DISL:DISL:1,2008-06-01T21:00:00Z,30.2513,-88.0778,5.775,8.33,1111122 
DISL,ioos:station:DISL:DISL:1,2008-06-01T21:30:00Z,30.2513,-88.0778,5.631,8.57,1111122 
DISL,ioos:station:DISL:DISL:1,2008-06-01T22:00:00Z,30.2513,-88.0778,5.539,8.67,1111122 
DISL,ioos:station:DISL:DISL:1,2008-06-01T22:30:00Z,30.2513,-88.0778,5.509,8.61,1111122 
DISL,ioos:station:DISL:DISL:1,2008-06-01T23:00:00Z,30.2513,-88.0778,5.469,8.65,1111122 
DISL,ioos:station:DISL:DISL:1,2008-06-01T23:30:00Z,30.2513,-88.0778,5.378,8.51,1111122 
DISL,ioos:station:DISL:DISL:1,2008-06-02T00:00:00Z,30.2513,-88.0778,5.375,8.87,1111122 
DISL,ioos:station:DISL:DISL:1,2008-06-02T00:30:00Z,30.2513,-88.0778,5.35,8.61,1111122 
DISL,ioos:station:DISL:DISL:1,2008-06-02T01:00:00Z,30.2513,-88.0778,5.386,8.52,1111122 
DISL,ioos:station:DISL:DISL:1,2008-06-02T01:30:00Z,30.2513,-88.0778,5.422,8.49,1111122 
DISL,ioos:station:DISL:DISL:1,2008-06-02T02:00:00Z,30.2513,-88.0778,5.445,8.16,1111122 
DISL,ioos:station:DISL:DISL:1,2008-06-02T02:30:00Z,30.2513,-88.0778,5.492,7.93,1111122 
DISL,ioos:station:DISL:DISL:1,2008-06-02T03:00:00Z,30.2513,-88.0778,5.529,7.55,1111122 
DISL,ioos:station:DISL:DISL:1,2008-06-02T03:30:00Z,30.2513,-88.0778,5.609,7.68,1111122 
DISL,ioos:station:DISL:DISL:1,2008-06-02T04:00:00Z,30.2513,-88.0778,5.642,7.15,1111122 
DISL,ioos:station:DISL:DISL:1,2008-06-02T04:30:00Z,30.2513,-88.0778,5.731,7.12,1111122 
DISL,ioos:station:DISL:DISL:1,2008-06-02T05:00:00Z,30.2513,-88.0778,5.809,6.86,1111122 
DISL,ioos:station:DISL:DISL:1,2008-06-02T05:30:00Z,30.2513,-88.0778,5.817,6.48,1111122 
DISL,ioos:station:DISL:DISL:1,2008-06-02T06:00:00Z,30.2513,-88.0778,5.892,6.44,1111122 
DISL,ioos:station:DISL:DISL:1,2008-06-02T06:30:00Z,30.2513,-88.0778,5.977,5.67,1111122 
DISL,ioos:station:DISL:DISL:1,2008-06-02T07:00:00Z,30.2513,-88.0778,6.047,5.07,1111122 
DISL,ioos:station:DISL:DISL:1,2008-06-02T07:30:00Z,30.2513,-88.0778,6.114,5.04,1111122 
DISL,ioos:station:DISL:DISL:1,2008-06-02T08:00:00Z,30.2513,-88.0778,6.257,4.81,1111122 
DISL,ioos:station:DISL:DISL:1,2008-06-02T08:30:00Z,30.2513,-88.0778,6.466,5.19,1111122 
DISL,ioos:station:DISL:DISL:1,2008-06-02T09:00:00Z,30.2513,-88.0778,6.6,4.49,1111122 
DISL,ioos:station:DISL:DISL:1,2008-06-02T09:30:00Z,30.2513,-88.0778,6.756,4.78,1111122 
DISL,ioos:station:DISL:DISL:1,2008-06-02T10:00:00Z,30.2513,-88.0778,6.84,4.91,1111122 
DISL,ioos:station:DISL:DISL:1,2008-06-02T10:30:00Z,30.2513,-88.0778,6.938,5.16,1111122 
DISL,ioos:station:DISL:DISL:1,2008-06-02T11:00:00Z,30.2513,-88.0778,7.02,5.27,1111122 
DISL,ioos:station:DISL:DISL:1,2008-06-02T11:30:00Z,30.2513,-88.0778,7.07,5.52,1111122 
DISL,ioos:station:DISL:DISL:1,2008-06-02T12:00:00Z,30.2513,-88.0778,7.1,5.49,1111122 
DISL,ioos:station:DISL:DISL:1,2008-06-02T12:30:00Z,30.2513,-88.0778,7.12,5.43,1111122 
DISL,ioos:station:DISL:DISL:1,2008-06-02T13:00:00Z,30.2513,-88.0778,7.2,5.5,1111122 
DISL,ioos:station:DISL:DISL:1,2008-06-02T13:30:00Z,30.2513,-88.0778,7.27,5.58,1111122 
DISL,ioos:station:DISL:DISL:1,2008-06-02T14:00:00Z,30.2513,-88.0778,7.22,5.63,1111122 
DISL,ioos:station:DISL:DISL:1,2008-06-02T14:30:00Z,30.2513,-88.0778,7.24,5.66,1111122 
DISL,ioos:station:DISL:DISL:1,2008-06-02T15:00:00Z,30.2513,-88.0778,7.17,5.67,1111122 
DISL,ioos:station:DISL:DISL:1,2008-06-02T15:30:00Z,30.2513,-88.0778,7.14,5.83,1111122 
DISL,ioos:station:DISL:DISL:1,2008-06-02T16:00:00Z,30.2513,-88.0778,7.1,5.81,1111122 
DISL,ioos:station:DISL:DISL:1,2008-06-02T16:30:00Z,30.2513,-88.0778,6.989,5.99,1111122 
DISL,ioos:station:DISL:DISL:1,2008-06-02T17:00:00Z,30.2513,-88.0778,6.826,6.1,1111122 
DISL,ioos:station:DISL:DISL:1,2008-06-02T17:30:00Z,30.2513,-88.0778,6.698,5.97,1111122 
DISL,ioos:station:DISL:DISL:1,2008-06-02T18:00:00Z,30.2513,-88.0778,6.607,6.29,1111122 
DISL,ioos:station:DISL:DISL:1,2008-06-02T18:30:00Z,30.2513,-88.0778,6.462,6.19,1111122 
DISL,ioos:station:DISL:DISL:1,2008-06-02T19:00:00Z,30.2513,-88.0778,6.313,6.37,1111122 
DISL,ioos:station:DISL:DISL:1,2008-06-02T19:30:00Z,30.2513,-88.0778,6.163,5.96,1111122 
DISL,ioos:station:DISL:DISL:1,2008-06-02T20:00:00Z,30.2513,-88.0778,5.969,7.87,1111122 
DISL,ioos:station:DISL:DISL:1,2008-06-02T20:30:00Z,30.2513,-88.0778,5.895,8.06,1111122 
DISL,ioos:station:DISL:DISL:1,2008-06-02T21:00:00Z,30.2513,-88.0778,5.734,8.06,1111122 
DISL,ioos:station:DISL:DISL:1,2008-06-02T21:30:00Z,30.2513,-88.0778,5.597,8.19,1111122 
DISL,ioos:station:DISL:DISL:1,2008-06-02T22:00:00Z,30.2513,-88.0778,5.484,7.92,1111122 
DISL,ioos:station:DISL:DISL:1,2008-06-02T22:30:00Z,30.2513,-88.0778,5.398,7.8,1111122 
DISL,ioos:station:DISL:DISL:1,2008-06-02T23:00:00Z,30.2513,-88.0778,5.262,7.99,1111122 
DISL,ioos:station:DISL:DISL:1,2008-06-02T23:30:00Z,30.2513,-88.0778,5.223,7.96,1111122 
DISL,ioos:station:DISL:DISL:1,2008-06-03T00:00:00Z,30.2513,-88.0778,4.957,8.05,1111122 
DISL,ioos:station:DISL:DISL:1,2008-06-03T00:30:00Z,30.2513,-88.0778,5.099,7.82,1111122 
DISL,ioos:station:DISL:DISL:1,2008-06-03T01:00:00Z,30.2513,-88.0778,5.086,7.58,1111122 
DISL,ioos:station:DISL:DISL:1,2008-06-03T01:30:00Z,30.2513,-88.0778,5.086,7.6,1111122 
DISL,ioos:station:DISL:DISL:1,2008-06-03T02:00:00Z,30.2513,-88.0778,5.094,7.13,1111122 
DISL,ioos:station:DISL:DISL:1,2008-06-03T02:30:00Z,30.2513,-88.0778,5.109,6.91,1111122 
DISL,ioos:station:DISL:DISL:1,2008-06-03T03:00:00Z,30.2513,-88.0778,5.151,6.67,1111122 
DISL,ioos:station:DISL:DISL:1,2008-06-03T03:30:00Z,30.2513,-88.0778,5.185,6.23,1111122 
DISL,ioos:station:DISL:DISL:1,2008-06-03T04:00:00Z,30.2513,-88.0778,5.223,5.57,1111122 
DISL,ioos:station:DISL:DISL:1,2008-06-03T04:30:00Z,30.2513,-88.0778,5.294,6.11,1111122 
DISL,ioos:station:DISL:DISL:1,2008-06-03T05:00:00Z,30.2513,-88.0778,5.375,5.81,1111122 
DISL,ioos:station:DISL:DISL:1,2008-06-03T05:30:00Z,30.2513,-88.0778,5.412,4.88,1111122 
DISL,ioos:station:DISL:DISL:1,2008-06-03T06:00:00Z,30.2513,-88.0778,5.461,5.77,1111122 
DISL,ioos:station:DISL:DISL:1,2008-06-03T06:30:00Z,30.2513,-88.0778,5.524,5.3,1111122 
DISL,ioos:station:DISL:DISL:1,2008-06-03T07:00:00Z,30.2513,-88.0778,5.624,5.29,1111122 
DISL,ioos:station:DISL:DISL:1,2008-06-03T07:30:00Z,30.2513,-88.0778,5.726,4.47,1111122 
DISL,ioos:station:DISL:DISL:1,2008-06-03T08:00:00Z,30.2513,-88.0778,5.845,4.68,1111122 
DISL,ioos:station:DISL:DISL:1,2008-06-03T08:30:00Z,30.2513,-88.0778,5.965,4.61,1111122 
DISL,ioos:station:DISL:DISL:1,2008-06-03T09:00:00Z,30.2513,-88.0778,6.124,4.29,1111122 
DISL,ioos:station:DISL:DISL:1,2008-06-03T09:30:00Z,30.2513,-88.0778,6.256,4.56,1111122 
DISL,ioos:station:DISL:DISL:1,2008-06-03T10:00:00Z,30.2513,-88.0778,6.404,4.32,1111122 
DISL,ioos:station:DISL:DISL:1,2008-06-03T10:30:00Z,30.2513,-88.0778,6.491,4.31,1111122 
DISL,ioos:station:DISL:DISL:1,2008-06-03T11:00:00Z,30.2513,-88.0778,6.647,4.54,1111122 
DISL,ioos:station:DISL:DISL:1,2008-06-03T11:30:00Z,30.2513,-88.0778,6.82,4.6,1111122 
DISL,ioos:station:DISL:DISL:1,2008-06-03T12:00:00Z,30.2513,-88.0778,6.906,4.88,1111122 
DISL,ioos:station:DISL:DISL:1,2008-06-03T12:30:00Z,30.2513,-88.0778,7.05,4.94,1111122 
DISL,ioos:station:DISL:DISL:1,2008-06-03T13:00:00Z,30.2513,-88.0778,7.14,5.19,1111122 
DISL,ioos:station:DISL:DISL:1,2008-06-03T13:30:00Z,30.2513,-88.0778,7.19,5.15,1111122 
DISL,ioos:station:DISL:DISL:1,2008-06-03T14:00:00Z,30.2513,-88.0778,7.23,5.63,1111122 
DISL,ioos:station:DISL:DISL:1,2008-06-03T14:30:00Z,30.2513,-88.0778,7.23,5.46,1111122 
DISL,ioos:station:DISL:DISL:1,2008-06-03T15:00:00Z,30.2513,-88.0778,7.33,5.55,1111122 
DISL,ioos:station:DISL:DISL:1,2008-06-03T15:30:00Z,30.2513,-88.0778,7.27,5.48,1111122 
DISL,ioos:station:DISL:DISL:1,2008-06-03T16:00:00Z,30.2513,-88.0778,7.19,5.37,1111122 
DISL,ioos:station:DISL:DISL:1,2008-06-03T16:30:00Z,30.2513,-88.0778,7.16,5.62,1111122 
DISL,ioos:station:DISL:DISL:1,2008-06-03T17:00:00Z,30.2513,-88.0778,7.05,5.73,1111122 
DISL,ioos:station:DISL:DISL:1,2008-06-03T17:30:00Z,30.2513,-88.0778,6.947,5.97,1111122 
DISL,ioos:station:DISL:DISL:1,2008-06-03T18:00:00Z,30.2513,-88.0778,6.817,6.09,1111122 
DISL,ioos:station:DISL:DISL:1,2008-06-03T18:30:00Z,30.2513,-88.0778,6.705,6.24,1111122 
DISL,ioos:station:DISL:DISL:1,2008-06-03T19:00:00Z,30.2513,-88.0778,6.573,6.45,1111122 
DISL,ioos:station:DISL:DISL:1,2008-06-03T19:30:00Z,30.2513,-88.0778,6.398,6.23,1111122 
DISL,ioos:station:DISL:DISL:1,2008-06-03T20:00:00Z,30.2513,-88.0778,6.273,6.06,1111122 
DISL,ioos:station:DISL:DISL:1,2008-06-03T20:30:00Z,30.2513,-88.0778,6.092,5.94,1111122 
DISL,ioos:station:DISL:DISL:1,2008-06-03T21:00:00Z,30.2513,-88.0778,5.948,6.54,1111122 
DISL,ioos:station:DISL:DISL:1,2008-06-03T21:30:00Z,30.2513,-88.0778,5.814,6.55,1111122 
DISL,ioos:station:DISL:DISL:1,2008-06-03T22:00:00Z,30.2513,-88.0778,5.752,6.69,1111122 
DISL,ioos:station:DISL:DISL:1,2008-06-03T22:30:00Z,30.2513,-88.0778,5.692,6.62,1111122 
DISL,ioos:station:DISL:DISL:1,2008-06-03T23:00:00Z,30.2513,-88.0778,5.585,6.61,1111122 
DISL,ioos:station:DISL:DISL:1,2008-06-03T23:30:00Z,30.2513,-88.0778,5.513,6.47,1111122 
DISL,ioos:station:DISL:DISL:1,2008-06-04T00:00:00Z,30.2513,-88.0778,5.44,6.43,1111122 
DISL,ioos:station:DISL:DISL:1,2008-06-04T00:30:00Z,30.2513,-88.0778,5.33,6.48,1111122 
DISL,ioos:station:DISL:DISL:1,2008-06-04T01:00:00Z,30.2513,-88.0778,5.238,6.55,1111122 
DISL,ioos:station:DISL:DISL:1,2008-06-04T01:30:00Z,30.2513,-88.0778,5.172,6.42,1111122 
DISL,ioos:station:DISL:DISL:1,2008-06-04T02:00:00Z,30.2513,-88.0778,5.096,6.42,1111122 
DISL,ioos:station:DISL:DISL:1,2008-06-04T02:30:00Z,30.2513,-88.0778,5.055,6.35,1111122 
DISL,ioos:station:DISL:DISL:1,2008-06-04T03:00:00Z,30.2513,-88.0778,5.091,6.22,1111122 
DISL,ioos:station:DISL:DISL:1,2008-06-04T03:30:00Z,30.2513,-88.0778,5.075,6.16,1111122 
DISL,ioos:station:DISL:DISL:1,2008-06-04T04:00:00Z,30.2513,-88.0778,4.992,6.29,1111122 
DISL,ioos:station:DISL:DISL:1,2008-06-04T04:30:00Z,30.2513,-88.0778,5.1,5.86,1111122 
DISL,ioos:station:DISL:DISL:1,2008-06-04T05:00:00Z,30.2513,-88.0778,5.192,5.88,1111122 
DISL,ioos:station:DISL:DISL:1,2008-06-04T05:30:00Z,30.2513,-88.0778,5.252,5.49,1111122 
DISL,ioos:station:DISL:DISL:1,2008-06-04T06:00:00Z,30.2513,-88.0778,5.29,5.34,1111122 
DISL,ioos:station:DISL:DISL:1,2008-06-04T06:30:00Z,30.2513,-88.0778,5.367,5.38,1111122 
DISL,ioos:station:DISL:DISL:1,2008-06-04T07:00:00Z,30.2513,-88.0778,5.512,5.45,1111122 
DISL,ioos:station:DISL:DISL:1,2008-06-04T07:30:00Z,30.2513,-88.0778,5.465,5.1,1111122 
DISL,ioos:station:DISL:DISL:1,2008-06-04T08:00:00Z,30.2513,-88.0778,5.645,4.63,1111122 
DISL,ioos:station:DISL:DISL:1,2008-06-04T08:30:00Z,30.2513,-88.0778,5.778,4.51,1111122 
DISL,ioos:station:DISL:DISL:1,2008-06-04T09:00:00Z,30.2513,-88.0778,5.952,4.96,1111122 
DISL,ioos:station:DISL:DISL:1,2008-06-04T09:30:00Z,30.2513,-88.0778,6.016,4.54,1111122 
DISL,ioos:station:DISL:DISL:1,2008-06-04T10:00:00Z,30.2513,-88.0778,6.173,4.37,1111122 
DISL,ioos:station:DISL:DISL:1,2008-06-04T10:30:00Z,30.2513,-88.0778,6.297,4.35,1111122 
DISL,ioos:station:DISL:DISL:1,2008-06-04T11:00:00Z,30.2513,-88.0778,6.432,4.78,1111122 
DISL,ioos:station:DISL:DISL:1,2008-06-04T11:30:00Z,30.2513,-88.0778,6.594,4.64,1111122 
DISL,ioos:station:DISL:DISL:1,2008-06-04T12:00:00Z,30.2513,-88.0778,6.729,4.88,1111122 
DISL,ioos:station:DISL:DISL:1,2008-06-04T12:30:00Z,30.2513,-88.0778,6.857,4.61,1111122 
DISL,ioos:station:DISL:DISL:1,2008-06-04T13:00:00Z,30.2513,-88.0778,7.0,4.86,1111122 
DISL,ioos:station:DISL:DISL:1,2008-06-04T13:30:00Z,30.2513,-88.0778,7.11,5.11,1111122 
DISL,ioos:station:DISL:DISL:1,2008-06-04T14:00:00Z,30.2513,-88.0778,7.12,5.09,1111122 
DISL,ioos:station:DISL:DISL:1,2008-06-04T14:30:00Z,30.2513,-88.0778,7.23,4.83,1111122 
DISL,ioos:station:DISL:DISL:1,2008-06-04T15:00:00Z,30.2513,-88.0778,7.28,4.57,1111122 
DISL,ioos:station:DISL:DISL:1,2008-06-04T15:30:00Z,30.2513,-88.0778,7.32,4.76,1111122 
DISL,ioos:station:DISL:DISL:1,2008-06-04T16:00:00Z,30.2513,-88.0778,7.31,5.41,1111122 
DISL,ioos:station:DISL:DISL:1,2008-06-04T16:30:00Z,30.2513,-88.0778,7.32,5.67,1111122 
DISL,ioos:station:DISL:DISL:1,2008-06-04T17:00:00Z,30.2513,-88.0778,7.29,5.94,1111122 
DISL,ioos:station:DISL:DISL:1,2008-06-04T17:30:00Z,30.2513,-88.0778,7.18,5.15,1111122 
DISL,ioos:station:DISL:DISL:1,2008-06-04T18:00:00Z,30.2513,-88.0778,7.17,5.67,1111122 
DISL,ioos:station:DISL:DISL:1,2008-06-04T18:30:00Z,30.2513,-88.0778,7.05,5.48,1111122 
DISL,ioos:station:DISL:DISL:1,2008-06-04T19:00:00Z,30.2513,-88.0778,6.938,5.18,1111122 
DISL,ioos:station:DISL:DISL:1,2008-06-04T19:30:00Z,30.2513,-88.0778,6.808,5.5,1111122 
DISL,ioos:station:DISL:DISL:1,2008-06-04T20:00:00Z,30.2513,-88.0778,6.67,6.15,1111122 
DISL,ioos:station:DISL:DISL:1,2008-06-04T20:30:00Z,30.2513,-88.0778,6.553,5.76,1111122 
DISL,ioos:station:DISL:DISL:1,2008-06-04T21:00:00Z,30.2513,-88.0778,6.407,6.24,1111122 
DISL,ioos:station:DISL:DISL:1,2008-06-04T21:30:00Z,30.2513,-88.0778,6.274,6.3,1111122 
DISL,ioos:station:DISL:DISL:1,2008-06-04T22:00:00Z,30.2513,-88.0778,6.117,6.43,1111122 
DISL,ioos:station:DISL:DISL:1,2008-06-04T22:30:00Z,30.2513,-88.0778,6.009,6.08,1111122 
DISL,ioos:station:DISL:DISL:1,2008-06-04T23:00:00Z,30.2513,-88.0778,5.88,5.99,1111122 
DISL,ioos:station:DISL:DISL:1,2008-06-04T23:30:00Z,30.2513,-88.0778,5.835,6.04,1111122 
DISL,ioos:station:DISL:DISL:1,2008-06-05T00:00:00Z,30.2513,-88.0778,5.721,6.01,1111122 
DISL,ioos:station:DISL:DISL:1,2008-06-05T00:30:00Z,30.2513,-88.0778,5.619,5.97,1111122 
DISL,ioos:station:DISL:DISL:1,2008-06-05T01:00:00Z,30.2513,-88.0778,5.553,5.93,1111122 
DISL,ioos:station:DISL:DISL:1,2008-06-05T01:30:00Z,30.2513,-88.0778,5.502,5.71,1111122 
DISL,ioos:station:DISL:DISL:1,2008-06-05T02:00:00Z,30.2513,-88.0778,5.411,6.08,1111122 
DISL,ioos:station:DISL:DISL:1,2008-06-05T02:30:00Z,30.2513,-88.0778,5.316,5.84,1111122 
DISL,ioos:station:DISL:DISL:1,2008-06-05T03:00:00Z,30.2513,-88.0778,5.25,6.21,1111122 
DISL,ioos:station:DISL:DISL:1,2008-06-05T03:30:00Z,30.2513,-88.0778,4.986,6.32,1111122 
DISL,ioos:station:DISL:DISL:1,2008-06-05T04:00:00Z,30.2513,-88.0778,5.185,6.26,1111122 
DISL,ioos:station:DISL:DISL:1,2008-06-05T04:30:00Z,30.2513,-88.0778,5.207,6.38,1111122 
DISL,ioos:station:DISL:DISL:1,2008-06-05T05:00:00Z,30.2513,-88.0778,5.188,6.11,1111122 
DISL,ioos:station:DISL:DISL:1,2008-06-05T05:30:00Z,30.2513,-88.0778,5.232,5.85,1111122 
DISL,ioos:station:DISL:DISL:1,2008-06-05T06:00:00Z,30.2513,-88.0778,5.3,5.71,1111122 
DISL,ioos:station:DISL:DISL:1,2008-06-05T06:30:00Z,30.2513,-88.0778,5.329,5.57,1111122 
DISL,ioos:station:DISL:DISL:1,2008-06-05T07:00:00Z,30.2513,-88.0778,5.383,6.02,1111122 
DISL,ioos:station:DISL:DISL:1,2008-06-05T07:30:00Z,30.2513,-88.0778,5.483,5.57,1111122 
DISL,ioos:station:DISL:DISL:1,2008-06-05T08:00:00Z,30.2513,-88.0778,5.582,5.39,1111122 
DISL,ioos:station:DISL:DISL:1,2008-06-05T08:30:00Z,30.2513,-88.0778,5.662,5.62,1111122 
DISL,ioos:station:DISL:DISL:1,2008-06-05T09:00:00Z,30.2513,-88.0778,5.769,5.08,1111122 
DISL,ioos:station:DISL:DISL:1,2008-06-05T09:30:00Z,30.2513,-88.0778,5.904,5.24,1111122 
DISL,ioos:station:DISL:DISL:1,2008-06-05T10:00:00Z,30.2513,-88.0778,6.025,5.36,1111122 
DISL,ioos:station:DISL:DISL:1,2008-06-05T10:30:00Z,30.2513,-88.0778,6.193,4.48,1111122 
DISL,ioos:station:DISL:DISL:1,2008-06-05T11:00:00Z,30.2513,-88.0778,6.324,4.49,1111122 
DISL,ioos:station:DISL:DISL:1,2008-06-05T11:30:00Z,30.2513,-88.0778,6.444,4.56,1111122 
DISL,ioos:station:DISL:DISL:1,2008-06-05T12:00:00Z,30.2513,-88.0778,6.613,4.64,1111122 
DISL,ioos:station:DISL:DISL:1,2008-06-05T12:30:00Z,30.2513,-88.0778,6.714,4.6,1111122 
DISL,ioos:station:DISL:DISL:1,2008-06-05T13:00:00Z,30.2513,-88.0778,6.876,4.64,1111122 
DISL,ioos:station:DISL:DISL:1,2008-06-05T13:30:00Z,30.2513,-88.0778,6.994,5.19,1111122 
DISL,ioos:station:DISL:DISL:1,2008-06-05T14:00:00Z,30.2513,-88.0778,7.04,5.13,1111122 
DISL,ioos:station:DISL:DISL:1,2008-06-05T14:30:00Z,30.2513,-88.0778,7.12,5.22,1111122 
DISL,ioos:station:DISL:DISL:1,2008-06-05T15:00:00Z,30.2513,-88.0778,7.25,4.95,1111122 
DISL,ioos:station:DISL:DISL:1,2008-06-05T15:30:00Z,30.2513,-88.0778,7.29,4.96,1111122 
DISL,ioos:station:DISL:DISL:1,2008-06-05T16:00:00Z,30.2513,-88.0778,7.39,4.96,1111122 
DISL,ioos:station:DISL:DISL:1,2008-06-05T16:30:00Z,30.2513,-88.0778,7.4,5.09,1111122 
DISL,ioos:station:DISL:DISL:1,2008-06-05T17:00:00Z,30.2513,-88.0778,7.42,5.53,1111122 
DISL,ioos:station:DISL:DISL:1,2008-06-05T17:30:00Z,30.2513,-88.0778,7.41,5.45,1111122 
DISL,ioos:station:DISL:DISL:1,2008-06-05T18:00:00Z,30.2513,-88.0778,7.36,6.04,1111122 
DISL,ioos:station:DISL:DISL:1,2008-06-05T18:30:00Z,30.2513,-88.0778,7.39,6.21,1111122 
DISL,ioos:station:DISL:DISL:1,2008-06-05T19:00:00Z,30.2513,-88.0778,7.06,5.66,1111122 
DISL,ioos:station:DISL:DISL:1,2008-06-05T19:30:00Z,30.2513,-88.0778,7.16,4.94,1111122 
DISL,ioos:station:DISL:DISL:1,2008-06-05T20:00:00Z,30.2513,-88.0778,7.05,5.62,1111122 
DISL,ioos:station:DISL:DISL:1,2008-06-05T20:30:00Z,30.2513,-88.0778,6.873,5.76,1111122 
DISL,ioos:station:DISL:DISL:1,2008-06-05T21:00:00Z,30.2513,-88.0778,6.731,6.08,1111122 
DISL,ioos:station:DISL:DISL:1,2008-06-05T21:30:00Z,30.2513,-88.0778,6.621,5.86,1111122 
DISL,ioos:station:DISL:DISL:1,2008-06-05T22:00:00Z,30.2513,-88.0778,6.479,5.3,1111122 
DISL,ioos:station:DISL:DISL:1,2008-06-05T22:30:00Z,30.2513,-88.0778,6.41,5.27,1111122 
DISL,ioos:station:DISL:DISL:1,2008-06-05T23:00:00Z,30.2513,-88.0778,6.304,5.6,1111122 
DISL,ioos:station:DISL:DISL:1,2008-06-05T23:30:00Z,30.2513,-88.0778,6.184,5.73,1111122 
DISL,ioos:station:DISL:DISL:1,2008-06-06T00:00:00Z,30.2513,-88.0778,6.08,5.86,1111122 
DISL,ioos:station:DISL:DISL:1,2008-06-06T00:30:00Z,30.2513,-88.0778,5.967,6.09,1111122 
DISL,ioos:station:DISL:DISL:1,2008-06-06T01:00:00Z,30.2513,-88.0778,5.881,6.07,1111122 
DISL,ioos:station:DISL:DISL:1,2008-06-06T01:30:00Z,30.2513,-88.0778,5.781,6.07,1111122 
DISL,ioos:station:DISL:DISL:1,2008-06-06T02:00:00Z,30.2513,-88.0778,5.672,6.15,1111122 
DISL,ioos:station:DISL:DISL:1,2008-06-06T02:30:00Z,30.2513,-88.0778,5.596,5.99,1111122 
DISL,ioos:station:DISL:DISL:1,2008-06-06T03:00:00Z,30.2513,-88.0778,5.487,6.44,1111122 
DISL,ioos:station:DISL:DISL:1,2008-06-06T03:30:00Z,30.2513,-88.0778,5.453,6.55,1111122 
DISL,ioos:station:DISL:DISL:1,2008-06-06T04:00:00Z,30.2513,-88.0778,5.415,6.53,1111122 
DISL,ioos:station:DISL:DISL:1,2008-06-06T04:30:00Z,30.2513,-88.0778,5.403,6.54,1111122 
DISL,ioos:station:DISL:DISL:1,2008-06-06T05:00:00Z,30.2513,-88.0778,5.413,6.64,1111122 
DISL,ioos:station:DISL:DISL:1,2008-06-06T05:30:00Z,30.2513,-88.0778,5.396,6.5,1111122 
DISL,ioos:station:DISL:DISL:1,2008-06-06T06:00:00Z,30.2513,-88.0778,5.43,6.3,1111122 
DISL,ioos:station:DISL:DISL:1,2008-06-06T06:30:00Z,30.2513,-88.0778,5.465,6.26,1111122 
DISL,ioos:station:DISL:DISL:1,2008-06-06T07:00:00Z,30.2513,-88.0778,5.213,6.12,1111122 
DISL,ioos:station:DISL:DISL:1,2008-06-06T07:30:00Z,30.2513,-88.0778,5.541,6.0,1111122 
DISL,ioos:station:DISL:DISL:1,2008-06-06T08:00:00Z,30.2513,-88.0778,5.562,6.33,1111122 
DISL,ioos:station:DISL:DISL:1,2008-06-06T08:30:00Z,30.2513,-88.0778,5.644,6.19,1111122 
DISL,ioos:station:DISL:DISL:1,2008-06-06T09:00:00Z,30.2513,-88.0778,5.7,6.01,1111122 
DISL,ioos:station:DISL:DISL:1,2008-06-06T09:30:00Z,30.2513,-88.0778,5.821,5.82,1111122 
DISL,ioos:station:DISL:DISL:1,2008-06-06T10:00:00Z,30.2513,-88.0778,5.902,6.06,1111122 
DISL,ioos:station:DISL:DISL:1,2008-06-06T10:30:00Z,30.2513,-88.0778,6.005,6.04,1111122 
DISL,ioos:station:DISL:DISL:1,2008-06-06T11:00:00Z,30.2513,-88.0778,6.153,5.76,1111122 
DISL,ioos:station:DISL:DISL:1,2008-06-06T11:30:00Z,30.2513,-88.0778,6.278,5.21,1111122 
DISL,ioos:station:DISL:DISL:1,2008-06-06T12:00:00Z,30.2513,-88.0778,6.442,5.29,1111122 
DISL,ioos:station:DISL:DISL:1,2008-06-06T12:30:00Z,30.2513,-88.0778,6.581,5.53,1111122 
DISL,ioos:station:DISL:DISL:1,2008-06-06T13:00:00Z,30.2513,-88.0778,6.753,5.46,1111122 
DISL,ioos:station:DISL:DISL:1,2008-06-06T13:30:00Z,30.2513,-88.0778,6.789,4.86,1111122 
DISL,ioos:station:DISL:DISL:1,2008-06-06T14:00:00Z,30.2513,-88.0778,6.865,4.86,1111122 
DISL,ioos:station:DISL:DISL:1,2008-06-06T14:30:00Z,30.2513,-88.0778,6.957,4.92,1111122 
DISL,ioos:station:DISL:DISL:1,2008-06-06T15:00:00Z,30.2513,-88.0778,7.11,4.86,1111122 
DISL,ioos:station:DISL:DISL:1,2008-06-06T15:30:00Z,30.2513,-88.0778,7.17,4.86,1111122 